Regional Weather Roundup
Issued by NWS Sterling, VA

Home | Current Version | Previous Version | Graphics & Text | Print | Product List | Glossary On
Versions: 1 2 3 4 5 6 7 8 9 10 11 12 13 14 15 16 17 18 19 20 21 22 23 24 25 26 27
000
ASUS41 KLWX 270810
RWRLWX

REGIONAL WEATHER ROUNDUP
NATIONAL WEATHER SERVICE BALTIMORE MD/WASHINGTON DC
400 AM EDT WED JUL 27 2016

Note: "FAIR" indicates few or no clouds below 12,000 feet
with no significant weather and/or obstructions to visibility.
 TC=TEMPERATURE CELSIUS

 * =Non NWS site. Station does not report precipitation (e.g. rain,
    snow, etc.), thunder, or fog.

DCZ001-MDZ009-015-VAZ040>042-051-053>054-270900-
WASHINGTON METRO

CITY           SKY/WX    TMP DP  RH WIND       PRES   REMARKS
WASHINGTON NAT CLOUDY    82  72  71 NW3       29.93F
DULLES         MOCLDY    77  71  82 CALM      29.94S
ANDREWS AFB    CLOUDY    79  72  80 SW5       29.93S
FT BELVOIR     FAIR      77  71  82 SE2       29.93S
QUANTICO       MOCLDY    79  71  76 VRB3      29.93F
COLLEGE PARK*  FAIR      79  72  78 W3        29.92F
LEESBURG*      FAIR      79  75  89 W3        29.95S
MANASSAS*      FAIR      75  75 100 CALM      29.93F
GAITHERSBURG*  CLOUDY    75  70  83 NW3       29.98S

$$

MDZ006>007-011-014-270900-
BALTIMORE METRO

CITY           SKY/WX    TMP DP  RH WIND       PRES   REMARKS
BWI AIRPORT    CLOUDY    80  71  74 W3        29.92S
MD SCIENCE CTR   N/A     83  69  62 MISG      29.92R
MARTIN STATE   CLOUDY    79  73  83 NW3       29.92F
ANNAPOLIS      LGT RAIN  82  74  76 NW3       29.91S
FORT MEADE*    CLOUDY    73  72  94 CALM      29.95S

$$

MDZ012-015-019>023-270900-
MARYLAND EASTERN SHORE

CITY           SKY/WX    TMP DP  RH WIND       PRES   REMARKS
OCEAN CITY     CLOUDY    77  75  93 CALM      29.93S
SALISBURY      CLOUDY    77  74  90 CALM      29.92S
BAY BRIDGE AP* CLOUDY    82  75  78 W7        29.91F
EASTON*        CLOUDY    83  80  90 CALM      29.95F HX  96

$$

MDZ017>025-270900-
SOUTHERN MARYLAND

CITY           SKY/WX    TMP DP  RH WIND       PRES   REMARKS
PATUXENT RIVER CLOUDY    81  75  82 W6        29.92S
ST INIGOES     CLOUDY    82  77  84 VRB3      29.92S HX  90
LEONARDTOWN*     N/A    N/A N/A N/A CALM      29.94

$$

MDZ003>005-270900-
NORTH CENTRAL MARYLAND

CITY           SKY/WX    TMP DP  RH WIND       PRES   REMARKS
FREDERICK*     CLOUDY    75  73  94 CALM      29.97S
HAGERSTOWN APT CLOUDY    76  70  82 CALM      29.96F

$$

MDZ501>502-270900-
WESTERN MARYLAND

CITY           SKY/WX    TMP DP  RH WIND       PRES   REMARKS
OAKLAND*       CLOUDY    66  64  94 CALM      30.10F
CUMBERLAND*    CLOUDY    75  68  78 NE3       30.02F

$$

VAZ025>031-270900-
SHENANDOAH VALLEY

CITY           SKY/WX    TMP DP  RH WIND       PRES   REMARKS
WINCHESTER*    FAIR      77  70  78 W3        29.97F
FRONT ROYAL*   FAIR      73  72  94 S3        29.97S
LURAY*         FAIR     N/A N/A N/A CALM      29.99S
NEW MARKET*    FAIR     N/A N/A N/A CALM      29.98S
STAUNTON*      FOG       70  70 100 CALM      30.03S VSB 1/4
WAYNESBORO*    FAIR      71  69  96 CALM      30.02F

$$

WVZ021-048>050-054>055-270900-
EASTERN WEST VIRGINIA PANHANDLE

CITY           SKY/WX    TMP DP  RH WIND       PRES   REMARKS
MARTINSBURG    MOCLDY    75  70  84 CALM      29.96S
PETERSBURG*    FAIR      72  71  98 CALM      29.99F FOG

$$

VAZ036>039-050-270900-
CENTRAL FOOTHILLS

CITY           SKY/WX    TMP DP  RH WIND       PRES   REMARKS
CHARLOTTESVILL FAIR      76  73  91 CALM      29.96F
CULPEPER*      FAIR      75  74  99 CALM      29.95F
ORANGE*          N/A     75  75 100 SW3       29.96F
GORDONSVILLE*  FAIR      74  73  95 SW5       29.95S
WARRENTON*     DRIZZLE   75  70  85 CALM      29.93F

$$

VAZ055>057-270900-
NORTH AND CENTRAL PIEDMONT

CITY           SKY/WX    TMP DP  RH WIND       PRES   REMARKS
FREDERICKSBRG* CLOUDY    75  75 100 CALM      29.93F
STAFFORD*      FAIR      74  70  88 CALM      29.97F

$$

NCZ024-NYZ072-PAZ021-071-VAZ022-071-270900-
OTHER REGIONAL OBSERVATIONS

CITY           SKY/WX    TMP DP  RH WIND       PRES   REMARKS
NEW YORK CITY  PTCLDY    76  61  59 CALM      29.96S
PHILADELPHIA   CLOUDY    79  66  64 NE5       29.93S
PITTSBURGH     CLOUDY    71  61  70 CALM      30.01F
ROANOKE        FAIR      75  72  90 N3        30.03S
RICHMOND       MOCLDY    73  72  96 N3        29.95S
RALEIGH        MOCLDY    76  75  97 S3        29.96F

$$

ANZ530>537-270900-
MARINE OBSERVATIONS

STATION/POSITION TIME  TEMP    WIND        PRES
                       AIR SEA DIR/SP/G
                 (UTC) (F)     (DEG/KT/KT) (MB)
THOMAS PT LIGHT  0800   81 85  290/ 10/ 11 1014.3F
BALT KEY BRIDGE  0742   82     270/  5/  6 1012.8R
COVE POINT       0742   81     280/  9/ 13 1013.5F
LEWISETTA        0748   80 87  290/  5/  6 1013.0F
SOLOMONS ISLAND  0742   81 85  290/  5/  7   N/A
PINEY POINT      0748          330/ 11/ 12   N/A

$$





USA.gov is the U.S. government's official web portal to all federal, state and local government web resources and services.